Simultaneous Nadir Overpasses (SNOs) Predictions

Prediction of SNOs between NPP and TERRA Satellite Orbit:

Table of predicted SNOs for the next 14.0 days since TLE Epoch: 10/19/2024
Index Date (NPP) Time (NPP) Lat,Lon (NPP) SZA (NPP ) Date (TERRA) Time (TERRA) Lat,Lon (TERRA) SZA (TERRA ) Distance(km) Time Diff (sec)
1 10/20/2024 10:46:25 72.81, 10.00 83.37 10/20/2024 10:47:06 72.83, 10.06 83.39 3.36 41
2 10/20/2024 11:37:07 -72.72, 177.51 96.72 10/20/2024 11:36:30 -72.74, 177.54 96.70 2.76 37
3 10/22/2024 21:58:52 72.81,-158.12 84.24 10/22/2024 21:59:35 72.82,-158.12 84.25 1.43 43
4 10/22/2024 22:49:34 -72.72, 9.39 95.85 10/22/2024 22:48:59 -72.73, 9.35 95.84 1.72 35
5 10/25/2024 09:11:19 72.84, 33.72 85.12 10/25/2024 09:12:02 72.82, 33.72 85.10 1.61 43
6 10/25/2024 10:02:00 -72.74,-158.77 94.97 10/25/2024 10:01:25 -72.72,-158.81 94.99 2.68 35
7 10/27/2024 20:23:44 72.84,-134.39 85.95 10/27/2024 20:24:26 72.83,-134.41 85.94 0.88 42
8 10/27/2024 21:14:26 -72.74, 33.13 94.14 10/27/2024 21:13:50 -72.73, 33.06 94.15 2.84 36
9 10/30/2024 07:36:10 72.86, 57.46 86.79 10/30/2024 07:36:49 72.85, 57.49 86.77 1.60 39
10 10/30/2024 08:26:52 -72.77,-135.03 93.30 10/30/2024 08:26:13 -72.74,-135.05 93.32 2.82 39
11 11/01/2024 18:48:35 72.86,-110.64 87.58 11/01/2024 18:49:10 72.88,-110.58 87.59 2.98 35
12 11/01/2024 19:39:17 -72.76, 56.88 92.52 11/01/2024 19:38:34 -72.77, 56.86 92.51 0.51 43



Historial Predications of SNOs between NPP and TERRA
